Regional Weather Roundup
Issued by NWS

Home | Current Version | Previous Version | Text Only | Print | Product List | Glossary Off
Versions: 1 2 3 4 5 6 7 8 9 10 11 12 13 14 15 16 17 18 19 20 21 22 23 24 25 26 27 28 29 30 31 32 33 34 35 36 37 38 39 40 41 42 43 44 45 46 47 48 49 50

000
ASUS43 KLOT 221310
RWRIL

ILLINOIS REGIONAL WEATHER ROUNDUP
NATIONAL WEATHER SERVICE CHICAGO/ROMEOVILLE IL
700 AM CST SAT NOV 22 2014

NOTE: "FAIR" INDICATES FEW OR NO CLOUDS BELOW 12,000 FEET WITH NO
SIGNIFICANT WEATHER AND/OR OBSTRUCTIONS TO VISIBILITY.

* THESE STATIONS ARE NOT UNDER NWS QUALITY CONTROL. THEY ALSO MAY NOT
  REPORT WEATHER SUCH AS PRECIPITATION OR FOG.

ILZ001-002-007-009-015-016-024-221400-
NORTHWEST ILLINOIS

CITY           SKY/WX    TMP DP  RH WIND       PRES   REMARKS
MOLINE         CLOUDY    41  38  89 S9        29.97F FOG
STERLING*      CLOUDY    37  36  93 S3        29.99F
SAVANNA*       FOG       35  33  95 S5        29.98F VSB 1   WCI  31
$$

ILZ003-004-008-010-011-017-018-221400-
NORTH CENTRAL ILLINOIS

CITY           SKY/WX    TMP DP  RH WIND       PRES   REMARKS
ROCKFORD       FOG       34  33  96 S8        30.02F VSB 1   WCI  27
FREEPORT*      FOG       33  33  98 S9        29.99F VSB 1   WCI  25
ROCHELLE*      LGT RAIN  35  35 100 S10       30.01F VSB 1   WCI  27
DE KALB*       DRZL/FOG  33  32  98 S12       30.01F VSB 1/2 WCI  24
PERU*          CLOUDY    40  37  92 S9        30.03F FOG
$$

ILZ005-006-012>014-019>023-221400-
NORTHEAST ILLINOIS

CITY           SKY/WX    TMP DP  RH WIND       PRES   REMARKS
CHICAGO-OHARE  DRIZZLE   36  34  92 S10       30.03F FOG     WCI  28
CHICAGO-MIDWAY CLOUDY    37  35  92 S13G18    30.05F FOG     WCI  29
AURORA         FOG       37  34  89 S7        30.03F VSB 3/4 WCI  32
LANSING*       CLOUDY    36  33  90 SW9       30.08S WCI  29
JOLIET*        CLOUDY    37  34  91 S7        30.05F FOG     WCI  31
WAUKEGAN       CLOUDY    35  34  96 SW12      30.00F FOG     WCI  27
DUPAGE AIRPORT CLOUDY    35  34  96 S10       30.02F FOG     WCI  27
KANKAKEE*      LGT RAIN  37  34  89 S13       30.08F WCI  29
WHEELING       CLOUDY    36  34  92 S9        30.04F FOG     WCI  29
MORRIS*        CLOUDY    38  37  93 S9        30.04F WCI  32
ROMEOVILLE*    CLOUDY    37  35  94 S10       30.04F FOG     WCI  29
NORTHERLY ISL    N/A     36  34  92 S12         N/A  WCI  28
$$

LMZ740>746-221400-
SOUTHERN LAKE MICHIGAN

STATION/POSITION SKY/WX   TEMP    WIND        PRES    VSBY  WAVE
                          AIR SEA DIR/SP/G                  HT/PER
                          (F)     (DEG/KT/KT) (MB)    (MI)  (FT/S)
SOUTHERN BUOY              40 43  210/ 21/ 25 1016.9F         6/ 6
WAUKEGAN HARBOR            36     220/ 13/ 16   N/A
HARRISON CRIB              36     200/ 18/ 22   N/A
BURNHAM HARBOR             36     190/  9/ 13   N/A
CALUMET HARBOR             36     180/  8/ 15 1016.7R
MICHIGAN CITY              36     180/ 14/ 18   N/A
$$

ILZ025>027-034>036-040-047-049-050-058-095>099-221400-
WEST-CENTRAL ILLINOIS

CITY           SKY/WX    TMP DP  RH WIND       PRES   REMARKS
QUINCY         CLOUDY    47  42  83 S12       30.01F
GALESBURG*     CLOUDY    42  39  90 S9        30.00F
MACOMB*        CLOUDY    43  40  90 S9        30.04S
JACKSONVILLE*  CLOUDY    44  39  82 S12       30.06F
PITTSFIELD*    CLOUDY    45  41  85 S9        30.05F
$$

ILZ028>032-037-038-041>044-048-051>054-059>061-221400-
CENTRAL ILLINOIS

CITY           SKY/WX    TMP DP  RH WIND       PRES   REMARKS
PONTIAC        CLOUDY    40  36  86 S14G22    30.06F
BLOOMINGTON    LGT RAIN  39  35  85 S13       30.08F WCI  31
DECATUR        CLOUDY    44  37  76 S13       30.11S
PEORIA         CLOUDY    41  37  86 S10       30.05S FOG
LACON*         CLOUDY    41  37  86 SW12      30.03S
LINCOLN*       CLOUDY    42  36  79 S12       30.08F
SPRINGFIELD    CLOUDY    44  37  76 S15       30.08F
TAYLORVILLE    MOCLDY    41  36  81 S13       30.10S
$$

ILZ033-039-045-046-055>057-062-063-221400-
EAST-CENTRAL ILLINOIS

CITY           SKY/WX    TMP DP  RH WIND       PRES   REMARKS
CHAMPAIGN      CLOUDY    39  36  89 S9        30.11F WCI  33
DANVILLE*      CLOUDY    39  34  82 SW14G21   30.09F WCI  31
RANTOUL*       CLOUDY    40  37  87 S9        30.10S
MATTOON        CLOUDY    42  33  70 S12       30.13S
PARIS*         MOCLDY    41  33  74 S16       30.15S
$$

ILZ079-100>102-221400-
SOUTHWEST ILLINOIS

CITY           SKY/WX    TMP DP  RH WIND       PRES   REMARKS
ALTON          MOCLDY    45  37  76 S9        30.11F
BELLEVILLE     CLOUDY    47  43  87 S9        30.13F
CAHOKIA*       CLOUDY    44  39  82 SE6       30.12F
SPARTA*        CLOUDY    48  42  78 S12G18    30.17F
$$

ILZ064>066-069>071-074>076-080>082-084>086-088>090-092>094-221400-
SOUTH-CENTRAL ILLINOIS

CITY           SKY/WX    TMP DP  RH WIND       PRES   REMARKS
CARBONDALE     CLOUDY    53  43  68 SW13G24   30.20S
CAIRO*         CLOUDY    53  43  68 S9        30.24S
EFFINGHAM*     MOCLDY    44  33  65 S6        30.15F
MARION         MOCLDY    52  43  71 S14       30.21S
MT. VERNON     CLOUDY    45  37  76 S7        30.18F
CENTRALIA*     CLOUDY    48  40  73 S13       30.16S
SALEM*           N/A     50  42  73 S14       30.16F
METROPOLIS*    CLOUDY    53  42  66 S7        30.25R
$$

ILZ067-068-072-073-078-083-087-091-221400-
SOUTHEAST ILLINOIS

CITY           SKY/WX    TMP DP  RH WIND       PRES   REMARKS
LAWRENCEVILLE  MOCLDY    42  34  73 S9        30.21S
FLORA*         CLEAR     42  35  77 S7        30.18F
FAIRFIELD*     CLOUDY    45  38  78 S8        30.19S
HARRISBURG*    CLOUDY    52  42  66 S13       30.23S
ROBINSON*      MOCLDY    41  33  73 S8        30.20S
CARMI*         CLOUDY    50  43  76 S16       30.21S
$$

ABBREVIATIONS USED IN REMARKS
   TC - TEMPERATURE IN CELSIUS
  WCI - WIND CHILL INDEX
   HX - HEAT INDEX
  VSB - VISIBILITY
$$



USA.gov is the U.S. government's official web portal to all federal, state and local government web resources and services.